1487581201.17,40821,14.81,73206.5,2.25,-38.29,-39.23,0,*7C
1487581202.4,40822,14.81,73204.0,2.23,-37.51,-38.35,0,*7F
1487581203.63,40823,14.88,73208.0,2.23,-37.33,-37.99,0,*73
1487581204.83,40824,14.81,73206.8,2.23,-35.71,-36.43,0,*76
1487581206.03,40825,14.88,73214.3,2.23,-35.47,-36.19,0,*7D
1487581207.28,40826,14.81,73210.0,2.23,-35.65,-36.25,0,*71
1487581208.53,40827,14.88,73216.3,2.25,-36.13,-37.15,0,*76
1487581209.76,40828,14.88,73212.3,2.25,-37.87,-38.61,0,*79
1487581211.02,40829,14.88,73212.0,2.23,-37.21,-37.93,0,*70
1487581212.25,40830,14.81,73210.3,2.25,-36.55,-37.27,0,*73
1487581213.47,40831,14.81,73210.8,2.23,-35.89,-36.61,0,*75
1487581214.67,40832,14.88,73212.5,2.23,-36.19,-36.85,0,*76
1487581215.88,40833,14.88,73214.8,2.23,-35.53,-36.07,0,*70
1487581217.11,40834,14.81,73210.0,2.25,-34.89,-35.59,0,*7F
1487581218.32,40835,14.81,73214.0,2.27,-35.01,-35.59,0,*7D
1487581219.52,40836,14.88,73214.8,2.27,-34.89,-35.59,0,*7F
1487581220.75,40837,14.88,73212.8,2.29,-35.01,-35.59,0,*71
1487581221.98,40838,14.88,73214.8,2.29,-34.59,-35.17,0,*78
1487581223.21,40839,14.88,73214.8,2.33,-34.47,-35.17,0,*7D
1487581224.44,40840,14.81,73212.3,2.33,-34.41,-35.13,0,*71
1487581225.7,40841,14.81,73214.3,2.35,-35.07,-35.65,0,*74
1487581226.92,40842,14.81,73210.5,2.35,-34.89,-35.53,0,*75
1487581228.18,40843,14.81,73214.0,2.37,-34.95,-35.65,0,*7E
1487581229.38,40844,14.81,73214.0,2.37,-35.29,-36.07,0,*78
1487581230.64,40845,14.81,73208.3,2.37,-35.23,-35.83,0,*7C
1487581231.92,40846,14.81,73210.0,2.39,-34.83,-35.23,0,*70
1487581233.2,40847,14.81,73208.8,2.39,-34.53,-35.07,0,*7A
1487581234.44,40848,14.81,73214.5,2.41,-34.65,-35.17,0,*7E
1487581235.68,40849,14.81,73208.0,2.43,-35.17,-35.89,0,*7E
1487581236.94,40850,14.81,73212.8,2.43,-35.35,-35.77,0,*77
1487581238.15,40851,14.81,73210.8,2.41,-34.77,-35.01,0,*72
1487581239.4,40852,14.88,73212.5,2.43,-34.59,-35.01,0,*7F
1487581240.63,40853,14.81,73212.0,2.45,-34.01,-34.59,0,*79
1487581241.88,40854,14.81,73214.3,2.47,-35.13,-35.83,0,*78
1487581243.13,40855,14.81,73214.5,2.47,-34.77,-35.35,0,*77
1487581244.35,40856,14.81,73212.5,2.45,-34.71,-35.29,0,*7D
1487581245.59,40857,14.81,73210.3,2.47,-33.89,-34.41,0,*71
1487581246.81,40858,14.81,73214.8,2.49,-33.83,-34.31,0,*7D
1487581248.08,40859,14.81,73212.3,2.51,-33.77,-34.19,0,*74
1487581249.33,40860,14.81,73214.5,2.53,-33.89,-34.31,0,*77
1487581250.56,40861,14.81,73212.5,2.57,-34.53,-35.29,0,*7A
1487581251.76,40862,14.81,73212.5,2.57,-34.89,-35.59,0,*79
1487581252.98,40863,14.81,73212.5,2.57,-35.53,-36.07,0,*76
1487581254.2,40864,14.81,73208.5,2.57,-35.47,-36.13,0,*71
1487581255.44,40865,14.81,73214.3,2.57,-35.35,-36.13,0,*75
1487581256.67,40866,14.81,73208.0,2.57,-34.77,-35.35,0,*76
1487581257.88,40867,14.81,73214.3,2.57,-34.71,-35.13,0,*75
1487581259.11,40868,14.81,73212.5,2.57,-36.07,-36.79,0,*76
1487581260.29,40869,14.81,73206.8,2.57,-38.73,-39.35,0,*7D
1487581261.54,40870,14.81,73204.8,2.53,-37.09,-37.69,0,*74
1487581262.8,40871,14.81,73208.0,2.51,-35.83,-36.43,0,*7E
1487581264.08,40872,14.81,73210.0,2.51,-35.41,-35.95,0,*7B
1487581265.3,40873,14.81,73210.0,2.53,-35.59,-36.13,0,*7C
1487581266.5,40874,14.81,73204.8,2.53,-35.59,-36.19,0,*71
1487581267.7,40875,14.81,73208.0,2.53,-36.31,-37.03,0,*77
1487581268.93,40876,14.81,73208.5,2.57,-36.25,-37.03,0,*75
1487581270.18,40877,14.81,73210.8,2.53,-37.99,-38.67,0,*7B
1487581271.39,40878,14.81,73208.8,2.49,-36.43,-37.15,0,*73
1487581272.66,40879,14.81,73210.3,2.51,-36.13,-36.61,0,*7C
1487581273.91,40880,14.81,73206.8,2.51,-35.13,-35.83,0,*76
1487581275.19,40881,14.81,73206.0,2.51,-35.23,-35.83,0,*74
1487581276.42,40882,14.81,73210.3,2.51,-35.47,-36.01,0,*7C
1487581277.7,40883,14.81,73208.3,2.51,-35.41,-35.95,0,*75
1487581278.98,40884,14.81,73206.8,2.51,-35.95,-36.37,0,*70
1487581280.21,40885,14.81,73210.0,2.53,-35.95,-36.67,0,*76
1487581281.41,40886,14.81,73210.0,2.53,-36.31,-37.03,0,*7B
1487581282.61,40887,14.81,73208.0,2.53,-35.71,-36.19,0,*77
1487581283.81,40888,14.81,73210.5,2.57,-35.71,-36.19,0,*7C
1487581285.01,40889,14.81,73206.0,2.53,-36.67,-37.45,0,*75
1487581286.26,40890,14.81,73204.0,2.51,-37.09,-37.87,0,*78
1487581287.46,40891,14.81,73208.3,2.49,-37.45,-38.05,0,*7D
1487581288.69,40892,14.81,73206.0,2.49,-37.87,-38.49,0,*78
1487581289.92,40893,14.81,73208.0,2.49,-36.91,-37.45,0,*7C
1487581291.14,40894,14.81,73210.5,2.49,-36.19,-36.91,0,*73
1487581292.42,40895,14.81,73204.5,2.47,-36.79,-37.51,0,*77
1487581293.64,40896,14.81,73210.5,2.47,-35.71,-36.31,0,*78
1487581294.9,40897,14.81,73208.5,2.47,-35.17,-35.83,0,*73
1487581296.18,40898,14.81,73212.5,2.47,-35.07,-35.53,0,*70
1487581297.43,40899,14.81,73208.0,2.49,-35.23,-36.13,0,*7E
1487581298.66,40900,14.81,73210.3,2.49,-36.13,-36.73,0,*79
1487581299.9,40901,14.81,73206.3,2.49,-35.23,-35.65,0,*7C
1487581301.16,40902,14.81,73208.3,2.51,-34.47,-35.07,0,*71
1487581302.39,40903,14.81,73214.5,2.53,-36.73,-37.21,0,*71
1487581303.65,40904,14.81,73210.8,2.53,-36.49,-37.39,0,*76
1487581304.92,40905,14.81,73208.0,2.51,-35.41,-36.25,0,*72
1487581306.18,40906,14.81,73210.8,2.51,-35.95,-36.73,0,*7B
1487581307.42,40907,14.81,73208.3,2.51,-36.61,-37.45,0,*76
1487581308.65,40908,14.81,73212.8,2.51,-35.77,-36.43,0,*7A
1487581309.91,40909,14.81,73214.5,2.51,-35.41,-36.01,0,*78
1487581311.17,40910,14.81,73210.5,2.51,-34.65,-35.29,0,*7E
1487581312.42,40911,14.81,73212.3,2.51,-35.47,-36.25,0,*71
1487581313.65,40912,14.81,73212.0,2.51,-36.01,-36.73,0,*70
1487581314.9,40913,14.81,73208.8,2.51,-36.37,-37.15,0,*75
1487581316.1,40914,14.81,73208.8,2.53,-35.59,-36.31,0,*7C
1487581317.31,40915,14.81,73208.5,2.53,-35.89,-36.67,0,*73
1487581318.52,40916,14.81,73210.3,2.53,-35.89,-36.67,0,*70
1487581319.74,40917,14.81,73208.5,2.53,-35.41,-36.31,0,*76
1487581320.98,40918,14.81,73208.3,2.53,-34.95,-35.77,0,*70
1487581322.2,40919,14.81,73210.3,2.57,-34.89,-35.65,0,*7B
1487581323.42,40920,14.81,73210.5,2.57,-35.53,-36.31,0,*75
1487581324.62,40921,14.81,73210.3,2.57,-35.29,-36.07,0,*7C
1487581325.84,40922,14.81,73210.3,2.57,-35.71,-36.49,0,*78
1487581327.04,40923,14.81,73210.0,2.57,-34.41,-35.17,0,*73
1487581328.27,40924,14.81,73208.5,2.59,-34.41,-35.29,0,*77
1487581329.49,40925,14.81,73206.3,2.59,-35.47,-36.31,0,*7B
1487581330.74,40926,14.81,73206.0,2.59,-36.01,-36.79,0,*75
1487581331.98,40927,14.81,73208.0,2.59,-35.29,-36.01,0,*72
1487581333.25,40928,14.81,73210.3,2.59,-35.83,-36.61,0,*7B
1487581334.47,40929,14.81,73210.0,2.61,-35.41,-36.19,0,*70
1487581335.67,40930,14.81,73212.8,2.61,-35.47,-36.07,0,*71
1487581336.91,40931,14.81,73214.3,2.59,-35.71,-36.49,0,*74
1487581338.14,40932,14.81,73212.0,2.61,-34.83,-35.59,0,*72
1487581339.36,40933,14.81,73212.3,2.61,-35.41,-36.19,0,*7B
1487581340.59,40934,14.81,73212.5,2.63,-34.71,-35.59,0,*7B
1487581341.87,40935,14.81,73210.8,2.63,-35.07,-35.83,0,*7D
1487581343.12,40936,14.81,73212.0,2.63,-34.83,-35.47,0,*7B
1487581344.32,40937,14.81,73214.5,2.65,-34.89,-35.59,0,*79
1487581345.55,40938,14.81,73218.5,2.65,-34.83,-35.71,0,*76
1487581346.77,40939,14.81,73214.5,2.65,-35.01,-35.89,0,*7B
1487581347.97,40940,14.81,73216.3,2.65,-38.17,-38.97,0,*7D
1487581349.22,40941,14.81,73214.8,2.63,-36.73,-37.39,0,*7D
1487581350.46,40942,14.81,73214.5,2.63,-37.27,-38.11,0,*7B
1487581351.72,40943,14.81,73216.8,2.63,-36.73,-37.51,0,*71
1487581352.92,40944,14.81,73214.8,2.61,-36.07,-36.97,0,*7C
1487581354.14,40945,14.81,73212.0,2.59,-36.07,-36.85,0,*75
1487581355.36,40946,14.81,73212.3,2.61,-36.73,-37.69,0,*7D
1487581356.59,40947,14.81,73210.3,2.59,-37.75,-38.61,0,*77
1487581357.85,40948,14.81,73210.3,2.59,-36.85,-37.63,0,*7B
1487581359.1,40949,14.81,73210.3,2.59,-36.43,-37.21,0,*76
1487581360.35,40950,14.81,73214.3,2.59,-35.89,-36.79,0,*77
1487581361.62,40951,14.81,73214.3,2.59,-35.35,-36.13,0,*7D
1487581362.87,40952,14.81,73214.5,2.59,-34.95,-35.71,0,*72
1487581364.11,40953,14.81,73218.3,2.61,-34.95,-35.77,0,*7E
1487581365.36,40954,14.81,73212.5,2.61,-34.53,-35.23,0,*72
1487581366.61,40955,14.81,73214.5,2.61,-34.19,-35.07,0,*7B
1487581367.83,40956,14.81,73212.0,2.65,-35.01,-35.77,0,*73
1487581369.06,40957,14.81,73206.3,2.65,-34.47,-35.23,0,*70
1487581370.28,40958,14.81,73206.0,2.65,-34.89,-35.53,0,*7A
1487581371.52,40959,14.81,73210.5,2.65,-34.83,-35.71,0,*71
1487581372.75,40960,14.81,73210.8,2.67,-35.29,-35.89,0,*7F
1487581374.01,40961,14.75,73208.5,2.67,-34.77,-35.65,0,*76
1487581375.26,40962,14.81,73216.3,2.67,-35.47,-36.25,0,*70
1487581376.48,40963,14.81,73212.8,2.67,-35.47,-36.31,0,*74
1487581377.72,40964,14.81,73212.0,2.69,-35.89,-36.67,0,*7C
1487581378.97,40965,14.81,73210.5,2.69,-36.13,-37.03,0,*7E
1487581380.19,40966,14.81,73214.8,2.67,-36.31,-37.03,0,*73
1487581381.45,40967,14.81,73210.5,2.67,-34.71,-35.35,0,*73
1487581382.69,40968,14.81,73210.5,2.67,-34.71,-35.47,0,*79
1487581383.94,40969,14.81,73208.0,2.67,-35.89,-36.79,0,*70
1487581385.18,40970,14.81,73210.3,2.67,-36.13,-36.97,0,*78
1487581386.46,40971,14.81,73212.3,2.67,-36.49,-37.21,0,*7A
1487581387.7,40972,14.81,73214.3,2.67,-35.65,-36.43,0,*71
1487581388.97,40973,14.81,73212.5,2.67,-35.65,-36.61,0,*70
1487581390.22,40974,14.81,73210.8,2.67,-37.63,-38.61,0,*7D
1487581391.47,40975,14.81,73210.0,2.67,-37.63,-38.61,0,*7C
1487581392.74,40976,14.81,73204.0,2.63,-39.29,-40.21,0,*70
1487581393.99,40977,14.81,73204.8,2.63,-36.79,-37.57,0,*7A
1487581395.23,40978,14.81,73202.0,2.63,-36.37,-37.33,0,*7D
1487581396.49,40979,14.81,73194.5,2.61,-36.61,-37.51,0,*79
1487581397.73,40980,14.81,73204.5,2.61,-36.79,-37.51,0,*76
1487581398.93,40981,14.81,73210.8,2.61,-36.19,-36.97,0,*7A
1487581400.13,40982,14.81,73208.3,2.61,-36.43,-37.33,0,*79
1487581401.37,40983,14.81,73210.3,2.59,-35.65,-36.31,0,*77
1487581402.58,40984,14.81,73206.3,2.61,-34.89,-35.77,0,*79
1487581403.82,40985,14.81,73204.8,2.63,-35.59,-36.37,0,*71
1487581405.06,40986,14.81,73208.5,2.63,-35.77,-36.37,0,*7E
1487581406.29,40987,14.75,73204.5,2.63,-35.59,-36.55,0,*77
1487581407.51,40988,14.75,73202.3,2.63,-36.01,-36.73,0,*72
1487581408.76,40989,14.81,73206.0,2.63,-36.19,-37.09,0,*76
1487581409.98,40990,14.81,73206.5,2.65,-36.19,-37.09,0,*78
1487581411.21,40991,14.75,73206.0,2.63,-36.07,-36.97,0,*76
1487581412.45,40992,14.81,73204.3,2.63,-36.61,-37.33,0,*7A
1487581413.67,40993,14.81,73204.8,2.63,-36.07,-36.97,0,*74
1487581414.95,40994,14.75,73202.5,2.63,-36.25,-37.09,0,*75
1487581416.2,40995,14.75,73206.3,2.63,-36.73,-37.51,0,*7A
1487581417.45,40996,14.81,73206.8,2.61,-36.61,-37.39,0,*76
1487581418.68,40997,14.81,73210.3,2.61,-36.37,-37.15,0,*7A
1487581419.88,40998,14.75,73206.5,2.61,-36.73,-37.57,0,*73
1487581421.11,40999,14.75,73210.5,2.59,-36.67,-37.57,0,*7C
1487581422.31,41000,14.75,73208.8,2.61,-36.43,-37.15,0,*7F
1487581423.54,41001,14.81,73212.8,2.61,-35.83,-36.55,0,*74
1487581424.79,41002,14.75,73208.3,2.61,-35.95,-36.61,0,*77
1487581426.04,41003,14.75,73210.0,2.59,-36.79,-37.57,0,*78
1487581427.29,41004,14.75,73208.0,2.61,-35.83,-36.61,0,*76
1487581428.51,41005,14.75,73214.5,2.61,-36.19,-36.91,0,*78
1487581429.77,41006,14.75,73212.3,2.59,-36.85,-37.63,0,*79
1487581430.99,41007,14.75,73214.0,2.61,-36.07,-36.91,0,*75
1487581432.21,41008,14.81,73218.5,2.61,-36.19,-36.91,0,*75
1487581433.44,41009,14.75,73210.3,2.61,-36.25,-36.97,0,*7D
1487581434.71,41010,14.75,73208.0,2.59,-35.65,-36.13,0,*75
1487581435.96,41011,14.81,73214.3,2.59,-35.89,-36.61,0,*73
1487581437.16,41012,14.75,73214.3,2.61,-36.07,-36.97,0,*77
1487581438.38,41013,14.75,73210.3,2.61,-37.33,-37.93,0,*75
1487581439.62,41014,14.75,73210.3,2.59,-38.55,-39.53,0,*74
1487581440.9,41015,14.75,73212.8,2.59,-38.79,-39.53,0,*7B
1487581442.12,41016,14.75,73210.5,2.57,-37.93,-38.61,0,*7D
1487581443.34,41017,14.75,73210.0,2.57,-37.33,-38.11,0,*71
1487581444.59,41018,14.75,73208.3,2.53,-36.37,-37.09,0,*79
1487581445.79,41019,14.75,73206.3,2.57,-36.01,-36.85,0,*7C
1487581446.99,41020,14.75,73206.8,2.53,-35.59,-36.19,0,*79
1487581448.21,41021,14.75,73208.3,2.57,-35.13,-35.83,0,*72
1487581449.44,41022,14.75,73210.8,2.57,-34.89,-35.53,0,*7E
1487581450.64,41023,14.75,73206.8,2.57,-35.17,-36.01,0,*7D
1487581451.89,41024,14.75,73204.3,2.61,-35.95,-36.61,0,*73
1487581453.09,41025,14.75,73208.8,2.61,-36.07,-36.73,0,*79
1487581454.34,41026,14.75,73206.0,2.63,-35.13,-35.83,0,*72
1487581455.57,41027,14.75,73210.3,2.61,-35.23,-36.01,0,*7B
1487581456.77,41028,14.75,73206.0,2.61,-36.07,-36.73,0,*74
1487581458.03,41029,14.75,73206.5,2.61,-35.07,-35.65,0,*72
1487581459.31,41030,14.75,73208.8,2.63,-35.23,-35.95,0,*71
1487581460.58,41031,14.75,73208.3,2.63,-35.23,-35.95,0,*70
1487581461.81,41032,14.75,73212.3,2.63,-35.13,-35.77,0,*7C
1487581463.09,41033,14.75,73212.8,2.63,-34.95,-35.65,0,*71
1487581464.29,41034,14.75,73212.5,2.65,-34.89,-35.59,0,*72
1487581465.55,41035,14.75,73216.0,2.65,-35.07,-35.95,0,*74
1487581466.77,41036,14.75,73212.0,2.67,-37.45,-38.17,0,*76
1487581468.03,41037,14.75,73212.0,2.65,-36.91,-37.69,0,*7B
1487581469.23,41038,14.75,73210.0,2.65,-36.67,-37.33,0,*72
1487581470.5,41039,14.75,73214.3,2.63,-35.95,-36.61,0,*7D
1487581471.74,41040,14.75,73214.0,2.63,-35.65,-36.07,0,*7C
1487581472.98,41041,14.75,73214.5,2.65,-35.41,-36.13,0,*78
1487581474.19,41042,14.75,73212.8,2.65,-36.55,-37.33,0,*7E
1487581475.39,41043,14.75,73214.3,2.65,-36.67,-37.27,0,*7B
1487581476.62,41044,14.75,73212.0,2.65,-35.95,-36.73,0,*72
1487581477.86,41045,14.75,73212.0,2.65,-35.95,-36.55,0,*77
1487581479.08,41046,14.75,73212.0,2.63,-35.01,-35.59,0,*70
1487581480.31,41047,14.75,73210.5,2.67,-34.41,-35.01,0,*7D
1487581481.56,41048,14.75,73216.0,2.67,-35.65,-36.31,0,*75
1487581482.8,41049,14.75,73214.5,2.67,-37.27,-38.11,0,*7C
1487581484.0,41050,14.75,73214.5,2.65,-38.97,-39.65,0,*70
1487581485.28,41051,14.75,73214.3,2.63,-38.91,-39.59,0,*7E
1487581486.48,41052,14.75,73212.0,2.61,-38.05,-38.55,0,*7F
1487581487.75,41053,14.75,73212.5,2.59,-38.11,-38.91,0,*78
1487581489.0,41054,14.75,73216.5,2.59,-39.09,-39.97,0,*70
1487581490.24,41055,14.75,73216.5,2.53,-39.15,-39.85,0,*75
1487581491.47,41056,14.75,73218.0,2.53,-39.59,-40.53,0,*7B
1487581492.75,41057,14.75,73212.3,2.51,-39.29,-40.21,0,*7A
1487581493.97,41058,14.75,73208.0,2.47,-38.35,-39.09,0,*7A
1487581495.2,41059,14.75,73208.0,2.47,-36.31,-37.03,0,*75
1487581496.45,41060,14.75,73208.8,2.47,-36.01,-36.61,0,*79
1487581497.67,41061,14.75,73210.3,2.47,-36.19,-36.85,0,*7B
1487581498.9,41062,14.75,73212.8,2.47,-37.57,-38.55,0,*70
1487581500.17,41063,14.75,73212.0,2.47,-39.29,-40.29,0,*72
1487581501.39,41064,14.75,73210.3,2.45,-40.29,-41.29,0,*78
1487581502.65,41065,14.75,73210.3,2.43,-41.55,-42.51,0,*79
1487581503.91,41066,14.75,73210.8,2.39,-42.25,-43.21,0,*75
1487581505.13,41067,14.75,73208.8,2.35,-39.53,-40.47,0,*76
1487581506.38,41068,14.75,73210.0,2.33,-40.97,-41.99,0,*7B
1487581507.59,41069,14.75,73210.0,2.27,-40.15,-41.17,0,*73
1487581508.82,41070,14.75,73208.3,2.27,-40.21,-41.03,0,*79
1487581510.07,41071,14.75,73208.0,2.25,-40.15,-41.03,0,*7D
1487581511.29,41072,14.75,73206.8,2.23,-41.73,-42.83,0,*72
1487581512.51,41073,14.75,73204.8,2.19,-41.93,-42.89,0,*7E
1487581513.73,41074,14.75,73206.3,2.15,-40.79,-41.73,0,*76
1487581514.97,41075,14.75,73198.5,2.11,-41.11,-42.31,0,*79
1487581516.2,41076,14.75,73200.5,2.11,-39.71,-40.53,0,*75
1487581517.43,41077,14.75,73204.0,2.07,-39.41,-40.35,0,*70
1487581518.68,41078,14.75,73200.3,2.05,-41.23,-42.25,0,*75
1487581519.94,41079,14.75,73200.0,2.03,-39.97,-40.85,0,*7A
1487581521.19,41080,14.75,73200.0,2.01,-38.11,-38.85,0,*7E
1487581522.39,41081,14.75,73202.0,2.03,-37.33,-38.05,0,*7A
1487581523.59,41082,14.69,73202.3,2.03,-37.15,-38.05,0,*7D
1487581524.84,41083,14.75,73204.0,2.03,-37.51,-38.23,0,*78
1487581526.07,41084,14.75,73208.0,2.01,-39.09,-40.03,0,*73
1487581527.32,41085,14.75,73206.0,2.01,-38.23,-38.85,0,*7A
1487581528.55,41086,14.75,73208.8,2.01,-37.75,-38.55,0,*78
1487581529.78,41087,14.75,73210.8,2.01,-37.57,-38.35,0,*7F
1487581531.03,41088,14.75,73210.8,2.01,-37.03,-37.93,0,*72
1487581532.28,41089,14.75,73210.3,2.01,-38.11,-39.09,0,*72
1487581533.53,41090,14.75,73210.5,2.01,-38.35,-39.23,0,*74
1487581534.8,41091,14.75,73206.8,2.01,-38.23,-39.03,0,*70
1487581536.05,41092,14.75,73204.8,2.01,-37.33,-38.23,0,*7E
1487581537.28,41093,14.75,73210.3,1.99,-37.03,-37.93,0,*7A
1487581538.5,41094,14.69,73204.5,1.99,-38.35,-39.29,0,*78
1487581539.78,41095,14.75,73210.8,1.97,-39.15,-40.09,0,*78
1487581541.02,41096,14.75,73214.5,1.97,-38.97,-39.79,0,*79
1487581542.27,41097,14.75,73210.0,1.97,-37.99,-38.73,0,*72
1487581543.52,41098,14.69,73208.5,1.97,-37.57,-38.29,0,*70
1487581544.72,41099,14.75,73208.8,1.95,-37.33,-38.05,0,*7F
1487581545.94,41100,14.75,73208.8,1.99,-38.35,-39.15,0,*7B
1487581547.21,41101,14.75,73212.0,1.97,-38.91,-39.71,0,*78
1487581548.44,41102,14.75,73210.3,1.95,-37.63,-38.43,0,*7B
1487581549.67,41103,14.75,73214.3,1.95,-37.63,-38.35,0,*7B
1487581550.89,41104,14.75,73210.8,1.95,-36.49,-37.27,0,*79
1487581552.12,41105,14.69,73210.3,1.95,-36.55,-37.51,0,*74
1487581553.36,41106,14.75,73208.8,1.95,-37.81,-38.61,0,*73
1487581554.55,41107,14.75,73206.8,1.95,-37.27,-38.05,0,*7C
1487581555.75,41108,14.75,73206.0,1.95,-36.73,-37.45,0,*78
1487581556.99,41109,14.75,73206.8,1.95,-35.95,-36.67,0,*73
1487581558.24,41110,14.75,73208.0,1.97,-35.83,-36.67,0,*7E
1487581559.49,41111,14.75,73210.3,2.01,-35.41,-36.01,0,*7D
1487581560.76,41112,14.69,73210.8,2.01,-35.65,-36.61,0,*7E
1487581561.99,41113,14.75,73212.5,2.03,-36.49,-37.27,0,*73
1487581563.22,41114,14.75,73212.3,2.03,-35.95,-36.73,0,*76
1487581564.49,41115,14.75,73208.8,2.01,-35.65,-36.37,0,*7A
1487581565.72,41116,14.69,73206.0,2.03,-35.95,-36.85,0,*7D
1487581566.97,41117,14.69,73202.3,2.05,-36.49,-37.15,0,*70
1487581568.23,41118,14.75,73206.5,2.05,-35.95,-36.67,0,*79
1487581569.49,41119,14.69,73204.8,2.05,-35.77,-36.37,0,*71
1487581570.73,41120,14.69,73208.5,2.05,-35.41,-36.19,0,*72
1487581571.94,41121,14.69,73206.8,2.07,-35.77,-36.67,0,*7D
1487581573.18,41122,14.69,73206.8,2.07,-35.65,-36.61,0,*7B
1487581574.4,41123,14.75,73208.8,2.07,-35.89,-36.79,0,*71
1487581575.65,41124,14.69,73210.0,2.07,-36.25,-37.09,0,*75
1487581576.91,41125,14.69,73210.0,2.11,-36.61,-37.21,0,*79
1487581578.12,41126,14.69,73204.3,2.11,-35.29,-35.89,0,*75
1487581579.35,41127,14.75,73208.0,2.11,-36.79,-37.57,0,*73
1487581580.57,41128,14.69,73208.5,2.13,-36.19,-36.85,0,*76
1487581581.8,41129,14.69,73206.8,2.11,-35.13,-35.83,0,*79
1487581583.06,41130,14.69,73206.5,2.13,-35.07,-35.59,0,*71
1487581584.3,41131,14.69,73206.8,2.13,-35.13,-35.89,0,*78
1487581585.58,41132,14.75,73210.0,2.17,-34.83,-35.53,0,*70
1487581586.84,41133,14.69,73206.0,2.15,-34.65,-35.35,0,*7B
1487581588.08,41134,14.69,73204.0,2.17,-35.01,-35.77,0,*7B
1487581589.27,41135,14.69,73206.5,2.19,-35.59,-36.43,0,*7D
1487581590.47,41136,14.69,73202.5,2.19,-35.59,-36.31,0,*7B
1487581591.69,41137,14.69,73204.0,2.19,-34.59,-35.29,0,*71
1487581592.95,41138,14.69,73204.5,2.21,-34.71,-35.23,0,*75
1487581594.23,41139,14.69,73200.0,2.25,-34.65,-35.07,0,*73
1487581595.51,41140,14.69,73206.5,2.25,-34.35,-35.07,0,*78
1487581596.79,41141,14.69,73204.5,2.25,-34.53,-35.07,0,*79
1487581598.02,41142,14.69,73206.3,2.29,-35.17,-35.89,0,*71
1487581599.27,41143,14.69,73204.0,2.29,-36.49,-37.27,0,*7E
1487581600.52,41144,14.69,73206.3,2.27,-36.79,-37.69,0,*7E
1487581601.75,41145,14.69,73200.8,2.27,-37.27,-37.93,0,*70
1487581602.98,41146,14.69,73204.0,2.27,-37.63,-38.43,0,*71
1487581604.23,41147,14.69,73204.8,2.25,-37.33,-38.11,0,*70
1487581605.43,41148,14.69,73206.5,2.23,-36.43,-37.15,0,*74
1487581606.69,41149,14.69,73204.3,2.25,-35.41,-36.01,0,*76
1487581607.93,41150,14.69,73204.5,2.25,-34.89,-35.23,0,*78
1487581609.16,41151,14.69,73204.0,2.25,-35.59,-36.19,0,*7F
1487581610.39,41152,14.69,73204.8,2.27,-37.27,-38.29,0,*78
1487581611.62,41153,14.69,73206.8,2.27,-37.33,-37.93,0,*72
1487581612.86,41154,14.69,73204.0,2.27,-35.65,-36.49,0,*72
1487581614.12,41155,14.69,73208.3,2.27,-36.91,-37.51,0,*73
1487581615.38,41156,14.69,73210.0,2.29,-37.03,-37.63,0,*75
1487581616.58,41157,14.69,73206.3,2.27,-36.55,-37.45,0,*7C
1487581617.86,41158,14.69,73206.3,2.25,-37.69,-38.49,0,*7C
1487581619.05,41159,14.69,73204.3,2.23,-38.55,-39.35,0,*71
1487581620.25,41160,14.69,73202.5,2.23,-38.55,-39.47,0,*7E
1487581621.49,41161,14.69,73206.3,2.21,-39.85,-40.91,0,*74
1487581622.75,41162,14.69,73198.8,2.19,-39.71,-40.59,0,*73
1487581624.0,41163,14.69,73202.8,2.15,-38.79,-39.59,0,*79
1487581625.2,41164,14.69,73200.0,2.15,-37.45,-38.05,0,*76
1487581626.42,41165,14.69,73204.8,2.15,-36.31,-36.91,0,*76
1487581627.63,41166,14.69,73204.3,2.15,-36.01,-36.73,0,*7A
1487581628.82,41167,14.69,73204.8,2.15,-36.55,-37.45,0,*7E
1487581630.05,41168,14.69,73206.3,2.15,-37.27,-37.99,0,*74
1487581631.28,41169,14.69,73206.0,2.15,-35.77,-36.37,0,*77
1487581632.51,41170,14.69,73204.8,2.17,-35.59,-36.31,0,*77
1487581633.79,41171,14.69,73206.3,2.17,-35.35,-35.95,0,*71
1487581635.02,41172,14.69,73204.3,2.17,-37.15,-37.87,0,*73
1487581636.25,41173,14.69,73206.3,2.17,-38.05,-38.61,0,*7B
1487581637.51,41174,14.69,73206.0,2.17,-37.63,-38.43,0,*73
1487581638.74,41175,14.69,73200.0,2.15,-37.81,-38.61,0,*7C
1487581639.94,41176,14.69,73204.3,2.15,-36.01,-36.67,0,*7E
1487581641.15,41177,14.69,73202.5,2.15,-36.01,-36.73,0,*7A
1487581642.43,41178,14.69,73206.8,2.17,-37.69,-38.23,0,*73
1487581643.66,41179,14.69,73204.8,2.15,-35.95,-36.55,0,*7E
1487581644.92,41180,14.69,73200.0,2.15,-35.23,-35.95,0,*7A
1487581646.17,41181,14.69,73202.5,2.17,-35.53,-36.19,0,*79
1487581647.4,41182,14.69,73200.3,2.19,-35.29,-35.95,0,*7E
1487581648.63,41183,14.69,73202.5,2.19,-35.01,-35.53,0,*7F
1487581649.89,41184,14.69,73200.8,2.21,-35.13,-35.83,0,*7D
1487581651.18,41185,14.69,73202.8,2.21,-34.95,-35.65,0,*7B
1487581652.41,41186,14.69,73204.5,2.21,-35.71,-36.43,0,*74
1487581653.65,41187,14.69,73202.8,2.23,-35.53,-36.25,0,*77
1487581654.88,41188,14.69,73206.0,2.25,-35.59,-36.19,0,*7B
1487581656.16,41189,14.69,73204.5,2.25,-35.35,-35.83,0,*70
1487581657.41,41190,14.69,73202.0,2.25,-35.17,-35.95,0,*7F
1487581658.63,41191,14.69,73204.5,2.27,-35.01,-35.77,0,*77
1487581659.86,41192,14.69,73202.5,2.29,-34.41,-35.13,0,*7D
1487581661.08,41193,14.69,73206.8,2.29,-35.29,-36.07,0,*75
1487581662.31,41194,14.69,73206.3,2.29,-36.07,-36.67,0,*7B
1487581663.54,41195,14.69,73204.0,2.29,-36.07,-36.55,0,*7B
1487581664.8,41196,14.69,73204.5,2.29,-37.27,-37.99,0,*7A
1487581666.05,41197,14.69,73206.3,2.29,-36.43,-37.09,0,*71
1487581667.27,41198,14.69,73208.3,2.29,-35.71,-36.43,0,*73
1487581668.54,41199,14.69,73208.5,2.33,-35.29,-35.95,0,*7C
1487581669.77,41200,14.69,73208.3,2.33,-35.89,-36.73,0,*7E
1487581671.03,41201,14.69,73206.5,2.33,-39.59,-40.53,0,*7D
1487581672.25,41202,14.69,73204.3,2.27,-40.65,-41.55,0,*7D
1487581673.51,41203,14.69,73202.0,2.25,-38.49,-39.09,0,*79
1487581674.72,41204,14.69,73200.3,2.23,-39.09,-40.03,0,*79
1487581675.95,41205,14.69,73202.3,2.21,-40.03,-40.91,0,*75
1487581677.21,41206,14.69,73200.8,2.17,-40.59,-41.41,0,*70
1487581678.43,41207,14.69,73202.0,2.15,-41.23,-42.37,0,*7D
1487581679.64,41208,14.69,73200.8,2.11,-41.03,-41.87,0,*7C
1487581680.89,41209,14.69,73200.8,2.07,-40.09,-40.79,0,*71
1487581682.15,41210,14.69,73200.8,2.05,-39.03,-40.15,0,*75
1487581683.37,41211,14.69,73202.3,2.03,-39.41,-40.03,0,*73
1487581684.62,41212,14.69,73202.8,2.01,-39.29,-40.03,0,*7C
1487581685.9,41213,14.69,73206.5,2.01,-38.29,-39.15,0,*75
1487581687.15,41214,14.69,73208.0,1.99,-38.29,-39.03,0,*77
1487581688.35,41215,14.69,73206.5,1.99,-38.73,-39.65,0,*79
1487581689.6,41216,14.69,73206.3,1.97,-38.43,-38.91,0,*7D
1487581690.82,41217,14.63,73202.3,1.99,-36.37,-36.97,0,*77
1487581692.04,41218,14.69,73204.8,1.99,-36.79,-37.33,0,*7D
1487581693.27,41219,14.69,73204.8,1.99,-36.37,-37.03,0,*75
1487581694.47,41220,14.69,73206.3,1.99,-35.89,-36.43,0,*7C
1487581695.71,41221,14.69,73204.5,2.03,-35.53,-36.13,0,*7F
1487581696.91,41222,14.69,73202.8,2.03,-35.59,-36.19,0,*7C
1487581698.16,41223,14.69,73206.0,2.05,-35.77,-36.37,0,*7B
1487581699.39,41224,14.69,73204.8,2.05,-36.31,-36.85,0,*74
1487581700.64,41225,14.63,73200.0,2.05,-37.33,-37.99,0,*7A
1487581701.93,41226,14.69,73200.8,2.05,-37.63,-38.23,0,*72
1487581703.16,41227,14.63,73200.8,2.03,-37.15,-37.81,0,*73